Location: Unspecified
(0.0000°N, 0.0000°E)
Time: 02:37:09
(UTC+00:00)

Hubble Space Telescope - Pass Details

Date: 17 September 2017
Orbit: 538 x 541 km, 28.5° (Epoch: 24 September)

Event Time Altitude Azimuth Distance (km) Brightness Sun altitude
Rises 18:20:06 0° 324° (NW) 2,664 4.9 -6.4°
Reaches altitude 10° 18:22:54 10° 343° (NNW) 1,777 3.7 -7.1°
Maximum altitude 18:25:48 19° 29° (NNE) 1,324 2.5 -7.9°
Drops below altitude 10° 18:28:43 10° 74° (ENE) 1,782 2.8 -8.6°
Enters shadow 18:28:47 10° 74° (ENE) 1,799 2.8 -8.6°
